• Join FlightAware (Why Join?)
  • Login
  • US Flag GB Flag 
13:07 EDT


 

Airport Tracker/Info


-or-


 

Live Flight TrackerFlight Track Log ✈ N860BA ✈ 03-Jul-2013 ✈ KMIA - KLAX

Flight Track Log - Related Links

Times and Time Zones

All times are in EDT time to prevent confusion due to time zone crossing. See the N860BA flight status page for this flight to view local times or setup timezone preferences in your user account.

Time Position Orientation Groundspeed Altitude Reporting Facility
EDT Latitude Longitude Course Direction KTS MPH feet Rate Location/Type
18:40 25.8025 -80.2678 85° East 194 223 400  Level Miami Center
18:41 25.8053 -80.2331 85° East 189 217 1,700 2,460 Climbing Miami Center
18:42 25.8131 -80.1756 81° East 214 246 4,200 2,100 Climbing Miami Center
18:44 25.9047 -80.1875 353° North 265 305 7,000 1,320 Climbing Miami Center
18:45 25.9381 -80.2739 293° West 265 305 7,700 1,680 Climbing Miami Center
18:46 25.9653 -80.3625 289° West 284 327 10,400 2,580 Climbing Miami Center
18:47 25.9944 -80.4464 291° West 291 335 12,900 2,280 Climbing Miami Center
18:48 26.0253 -80.5514 288° West 314 361 15,000 1,920 Climbing Miami Center
18:49 26.0819 -80.6319 308° West 320 368 16,800 1,680 Climbing Miami Center
18:51 26.2536 -80.6950 342° North 320 368 20,100 1,680 Climbing Miami Center
18:52 26.3481 -80.7514 332° Northwest 335 386 21,900 1,500 Climbing Miami Center
18:53 26.4281 -80.8075 328° Northwest 359 413 23,100 1,200 Climbing Miami Center
18:54 26.5161 -80.8683 328° Northwest 365 420 24,300 1,260 Climbing Miami Center
18:55 26.6142 -80.9439 325° Northwest 380 437 25,700 1,320 Climbing Miami Center
18:56 26.7044 -81.0028 330° Northwest 380 437 27,000 1,260 Climbing Miami Center
18:57 26.8078 -81.0389 343° North 372 428 28,300 1,320 Climbing Miami Center
18:58 26.8683 -81.1133 312° West 356 410 29,700 1,260 Climbing Miami Center
18:59 26.9261 -81.2086 304° West 361 415 30,900 1,140 Climbing Miami Center
19:00 26.9875 -81.3133 303° West 367 422 32,000 900 Climbing Miami Center
19:01 27.0219 -81.4219 290° West 367 422 32,700 540 Climbing Miami Center
19:02 27.0558 -81.5328 289° West 373 429 33,100 360 Climbing Miami Center
19:03 27.0858 -81.6367 288° West 380 437 33,500 420 Climbing Miami Center
19:04 27.1217 -81.7547 289° West 392 451 34,000 240 Climbing Miami Center
19:05 27.1608 -81.8894 288° West 411 473 34,000  Level Miami Center
19:06 27.1981 -82.0169 288° West 428 493 34,000  Level Miami Center
19:07 27.2350 -82.1469 288° West 433 498 34,000  Level Miami Center
19:08 27.2683 -82.2653 288° West 439 505 34,000  Level Miami Center
19:09 27.3072 -82.3981 288° West 444 511 34,000  Level Miami Center
19:10 27.3494 -82.5425 288° West 449 517 34,000  Level Miami Center
19:11 27.3900 -82.6778 289° West 449 517 34,000  Level Miami Center
19:12 27.4286 -82.8061 289° West 449 517 34,000 -60 Level Miami Center
19:13 27.4611 -82.9292 287° West 449 517 33,900  Descending Miami Center
19:14 27.4994 -83.0575 289° West 449 517 34,000  Climbing Miami Center
19:15 27.5353 -83.1906 287° West 449 517 33,900 -60 Descending Miami Center
19:16 27.5711 -83.3214 287° West 449 517 33,900  Level Miami Center
19:17 27.6111 -83.4522 289° West 449 517 33,900  Level Miami Center
19:18 27.6447 -83.5831 286° West 449 517 33,900  Level Miami Center
19:19 27.6842 -83.7189 288° West 449 517 34,000  Climbing Miami Center
19:21 27.7775 -84.0442 288° West 452 520 34,000 -60 Level Jacksonville Center
19:22 27.8097 -84.1806 285° West 452 520 33,900  Descending Jacksonville Center
19:23 27.8478 -84.3194 287° West 457 526 34,000  Climbing Jacksonville Center
19:24 27.8900 -84.4681 288° West 457 526 33,900 -60 Descending Jacksonville Center
19:25 27.9236 -84.6047 286° West 457 526 33,900  Level Jacksonville Center
19:26 27.9633 -84.7442 288° West 462 532 33,900  Level Jacksonville Center
19:27 27.9969 -84.8692 287° West 470 541 33,900  Level Jacksonville Center
19:28 28.0325 -85.0064 286° West 463 533 34,000  Climbing Jacksonville Center
19:29 28.0717 -85.1458 288° West 459 528 33,900 -60 Descending Jacksonville Center
19:30 28.1069 -85.2856 286° West 464 534 33,900  Level Jacksonville Center
19:31 28.1458 -85.4231 288° West 464 534 33,900  Level Jacksonville Center
19:32 28.1825 -85.5697 286° West 464 534 33,900  Level Jacksonville Center
19:33 28.2192 -85.7075 287° West 462 532 33,900  Level Jacksonville Center
19:34 28.2558 -85.8403 287° West 462 532 33,900  Level Jacksonville Center
19:35 28.2922 -85.9828 286° West 462 532 33,900  Level Jacksonville Center
19:36 28.3264 -86.1206 286° West 467 537 33,900  Level Jacksonville Center
19:37 28.3644 -86.2611 287° West 467 537 33,900  Level Jacksonville Center
19:38 28.4003 -86.4039 286° West 468 539 33,900  Level Jacksonville Center
19:39 28.4381 -86.5514 286° West 466 536 33,900  Level Jacksonville Center
19:40 28.4736 -86.6897 286° West 460 529 33,900  Level Jacksonville Center
19:41 28.5111 -86.8328 287° West 470 541 33,900  Level Jacksonville Center
19:42 28.5442 -86.9733 285° West 470 541 33,900  Level Jacksonville Center
19:43 28.5792 -87.1167 286° West 470 541 33,900  Level Jacksonville Center
19:44 28.6181 -87.2650 287° West 481 554 33,900 60 Level Jacksonville Center
19:45 28.6428 -87.3717 285° West 473 544 34,100 360 Climbing Houston Center
19:46 28.6783 -87.5133 286° West 468 539 34,600 420 Climbing Houston Center
19:47 28.7133 -87.6564 286° West 469 540 35,000 420 Climbing Houston Center
19:48 28.7467 -87.7981 285° West 465 535 35,500 420 Climbing Houston Center
19:49 28.7811 -87.9397 286° West 464 534 35,900 240 Climbing Houston Center
19:50 28.8189 -88.0958 285° West 463 533 36,000  Climbing Houston Center
19:51 28.8528 -88.2386 285° West 465 535 36,000  Level Houston Center
19:52 28.8867 -88.3806 285° West 466 536 36,000  Level Houston Center
19:53 28.9203 -88.5231 285° West 465 535 36,000  Level Houston Center
19:54 28.9606 -88.6925 285° West 465 535 36,000  Level Houston Center
19:55 28.9928 -88.8333 285° West 461 531 36,000  Level Houston Center
19:56 29.0258 -88.9747 285° West 461 531 36,000  Level Houston Center
19:57 29.0592 -89.1164 285° West 462 532 36,000  Level Houston Center
19:58 29.0911 -89.2581 285° West 460 529 36,000  Level Houston Center
19:59 29.1231 -89.3989 285° West 459 528 36,000  Level Houston Center
20:00 29.1558 -89.5400 285° West 460 529 36,000  Level Houston Center
20:01 29.1944 -89.7100 285° West 459 528 36,000  Level Houston Center
20:02 29.2261 -89.8506 285° West 457 526 36,000  Level Houston Center
20:03 29.2575 -89.9917 284° West 456 525 36,000  Level Houston Center
20:04 29.2892 -90.1317 285° West 454 522 36,000  Level Houston Center
20:05 29.3194 -90.2717 284° West 453 521 36,000  Level Houston Center
20:06 29.3494 -90.4097 284° West 448 516 36,000  Level Houston Center
20:07 29.3806 -90.5486 284° West 448 516 36,000  Level Houston Center
20:08 29.4172 -90.7161 284° West 450 518 36,000  Level Houston Center
20:09 29.4478 -90.8536 284° West 447 514 36,000  Level Houston Center
20:10 29.4783 -90.9939 284° West 451 519 36,000  Level Houston Center
20:12 29.5081 -91.1328 284° West 450 518 36,000  Level Houston Center
20:13 29.5372 -91.2706 284° West 446 513 36,000  Level Houston Center
20:14 29.5658 -91.4089 283° West 447 514 36,000  Level Houston Center
20:15 29.5964 -91.5464 284° West 446 513 36,000  Level Houston Center
20:16 29.6308 -91.7122 283° West 446 513 36,000  Level Houston Center
20:17 29.6553 -91.8283 284° West 444 511 36,000 -60 Level Houston Center
20:18 29.6911 -91.9939 284° West 445 512 35,900  Descending Houston Center
20:19 29.7186 -92.1319 283° West 444 511 36,000  Climbing Houston Center
20:20 29.7475 -92.2678 284° West 441 507 36,000  Level Houston Center
20:21 29.7742 -92.4028 283° West 435 501 36,000  Level Houston Center
20:22 29.8028 -92.5386 284° West 436 502 36,000  Level Houston Center
20:23 29.8297 -92.6719 283° West 431 496 36,000  Level Houston Center
20:24 29.8622 -92.8336 283° West 432 497 36,000  Level Houston Center
20:25 29.8889 -92.9672 283° West 429 494 36,000  Level Houston Center
20:26 29.9144 -93.1000 283° West 425 489 36,000  Level Houston Center
20:27 29.9403 -93.2333 283° West 425 489 36,000  Level Houston Center
20:28 29.9667 -93.3650 283° West 421 484 36,000  Level Houston Center
20:29 29.9919 -93.4964 283° West 419 482 36,000  Level Houston Center
20:30 30.0197 -93.6258 284° West 415 478 36,000 -60 Level Houston Center
20:31 30.0656 -93.7533 293° West 428 493 35,900  Descending Houston Center
20:32 30.0883 -93.8822 282° West 411 473 36,000  Climbing Houston Center
20:33 30.1167 -94.0358 282° West 409 471 36,000  Level Houston Center
20:34 30.1414 -94.1622 283° West 405 466 36,000  Level Houston Center
20:35 30.1642 -94.2875 282° West 400 460 36,000  Level Houston Center
20:36 30.1864 -94.4122 282° West 398 458 36,000  Level Houston Center
20:37 30.2136 -94.5406 284° West 397 457 36,000  Level Houston Center
20:38 30.2350 -94.6617 282° West 390 449 36,000  Level Houston Center
20:39 30.2578 -94.7856 282° West 395 455 36,000  Level Houston Center
20:40 30.2806 -94.9086 282° West 396 456 36,000  Level Houston Center
20:41 30.3081 -95.0561 282° West 395 455 36,000  Level Houston Center
20:42 30.3306 -95.1789 282° West 394 453 36,000  Level Houston Center
20:43 30.3511 -95.3019 281° West 392 451 36,000  Level Houston Center
20:44 30.3733 -95.4275 282° West 397 457 36,000  Level Houston Center
20:46 30.3950 -95.5497 282° West 392 451 36,000  Level Houston Center
20:47 30.4172 -95.6736 282° West 393 452 36,000  Level Houston Center
20:48 30.4439 -95.8217 282° West 393 452 36,000  Level Houston Center
20:49 30.4658 -95.9464 282° West 396 456 36,000  Level Houston Center
20:50 30.4875 -96.0772 281° West 397 457 36,000  Level Houston Center
20:51 30.5083 -96.2044 281° West 398 458 36,000  Level Houston Center
20:52 30.5317 -96.3311 282° West 398 458 36,000  Level Houston Center
20:53 30.5519 -96.4581 281° West 398 458 36,000  Level Houston Center
20:54 30.5733 -96.5858 281° West 399 459 36,000  Level Houston Center
20:55 30.5950 -96.7125 281° West 396 456 36,000  Level Houston Center
20:56 30.6158 -96.8403 281° West 398 458 36,000  Level Houston Center
20:57 30.6406 -96.9919 281° West 403 464 36,000  Level Houston Center
20:58 30.6611 -97.1214 280° West 402 463 36,000  Level Houston Center
20:59 30.6822 -97.2528 281° West 405 466 36,000  Level Houston Center
21:00 30.7025 -97.3850 280° West 406 467 36,000  Level Houston Center
21:01 30.7239 -97.5164 281° West 407 468 36,000  Level Houston Center
21:02 30.7450 -97.6472 281° West 407 468 36,000  Level Houston Center
21:03 30.7664 -97.7786 281° West 407 468 36,000  Level Houston Center
21:04 30.7861 -97.9103 280° West 409 471 36,000  Level Houston Center
21:05 30.8075 -98.0422 281° West 409 471 36,000  Level Houston Center
21:06 30.8283 -98.1742 280° West 410 472 36,000  Level Houston Center
21:07 30.8486 -98.3061 280° West 410 472 36,000  Level Houston Center
21:08 30.8686 -98.4375 280° West 409 471 36,000  Level Houston Center
21:09 30.8919 -98.5903 280° West 406 467 36,000  Level Houston Center
21:10 30.9125 -98.7208 280° West 406 467 36,000  Level Houston Center
21:11 30.9322 -98.8517 280° West 406 467 36,000  Level Houston Center
21:12 30.9514 -98.9844 280° West 410 472 36,000  Level Houston Center
21:13 30.9711 -99.1167 280° West 412 474 36,000  Level Houston Center
21:14 30.9917 -99.2542 280° West 415 478 36,000  Level Houston Center
21:15 31.0106 -99.3867 279° West 417 480 36,000 -60 Level Houston Center
21:16 31.0278 -99.5153 279° West 400 460 35,900  Descending Houston Center
21:17 31.0481 -99.6489 280° West 417 480 36,000  Climbing Houston Center
21:18 31.0672 -99.7819 280° West 418 481 36,000  Level Houston Center
21:19 31.0903 -99.9425 280° West 417 480 36,000  Level Houston Center
21:21 31.1083 -100.0761 279° West 412 474 36,000  Level Houston Center
21:22 31.1281 -100.2125 280° West 423 487 36,000  Level Houston Center
21:23 31.1464 -100.3472 279° West 422 486 36,000  Level Houston Center
21:24 31.1653 -100.4781 280° West 414 476 36,000 -60 Level Houston Center
21:25 31.1833 -100.6133 279° West 417 480 35,900  Descending Houston Center
21:26 31.2017 -100.7486 279° West 422 486 36,000  Climbing Houston Center
21:27 31.2222 -100.9106 278° West 430 495 35,900  Descending Houston Center
21:28 31.2411 -101.0453 279° West 424 488 36,000 180 Climbing Houston Center
21:29 31.2561 -101.1783 278° West 420 483 36,300 360 Climbing Houston Center
21:30 31.2742 -101.3169 279° West 423 487 36,800 360 Climbing Houston Center
21:31 31.2925 -101.4567 279° West 430 495 37,100 300 Climbing Houston Center
21:32 31.3106 -101.5969 279° West 434 499 37,500 360 Climbing Houston Center
21:33 31.3283 -101.7375 278° West 437 503 37,900 180 Climbing Houston Center
21:34 31.3506 -101.9061 279° West 438 504 37,900  Level Houston Center
21:35 31.3689 -102.0469 279° West 440 506 37,900  Level Houston Center
21:36 31.3811 -102.1706 277° West 444 511 37,900  Level Albuquerque Center
21:37 31.3981 -102.3133 278° West 442 509 37,900  Level Albuquerque Center
21:38 31.4147 -102.4544 278° West 439 505 38,000  Climbing Albuquerque Center
21:39 31.4328 -102.6083 278° West 439 505 37,900 120 Descending Albuquerque Center
21:40 31.4497 -102.7478 278° West 438 504 38,300 360 Climbing Albuquerque Center
21:41 31.4650 -102.8842 278° West 429 494 38,700 360 Climbing Albuquerque Center
21:42 31.4808 -103.0211 278° West 426 490 39,100 420 Climbing Albuquerque Center
21:43 31.4958 -103.1589 277° West 427 491 39,600 360 Climbing Albuquerque Center
21:44 31.5125 -103.2978 278° West 429 494 39,900 120 Climbing Albuquerque Center
21:45 31.5281 -103.4386 277° West 434 499 39,900  Level Albuquerque Center
21:46 31.5458 -103.6100 277° West 440 506 39,900  Level Albuquerque Center
21:47 31.5625 -103.7547 278° West 447 514 39,900  Level Albuquerque Center
21:48 31.5767 -103.8786 278° West 447 514 39,900  Level Albuquerque Center
21:49 31.5931 -104.0242 278° West 451 519 39,900  Level Albuquerque Center
21:50 31.6117 -104.1958 277° West 445 512 39,900  Level Albuquerque Center
21:51 31.6267 -104.3372 277° West 441 507 39,900  Level Albuquerque Center
21:52 31.6422 -104.4786 277° West 440 506 39,900  Level Albuquerque Center
21:53 31.6561 -104.6203 277° West 440 506 39,900  Level Albuquerque Center
21:54 31.6706 -104.7619 277° West 439 505 39,900  Level Albuquerque Center
21:55 31.6853 -104.9022 277° West 438 504 39,900  Level Albuquerque Center
21:56 31.7003 -105.0444 277° West 440 506 39,900  Level Albuquerque Center
21:57 31.7136 -105.1869 276° West 442 509 39,900  Level Albuquerque Center
21:58 31.7306 -105.3600 277° West 448 516 39,900  Level Albuquerque Center
21:59 31.7436 -105.5039 276° West 445 512 39,900  Level Albuquerque Center
22:00 31.7581 -105.6481 277° West 447 514 39,900  Level Albuquerque Center
22:01 31.7711 -105.7919 276° West 445 512 39,900  Level Albuquerque Center
22:02 31.7850 -105.9367 276° West 448 516 39,900  Level Albuquerque Center
22:03 31.7978 -106.0808 276° West 445 512 39,900  Level Albuquerque Center
22:04 31.8128 -106.2244 277° West 444 511 39,900  Level Albuquerque Center
22:05 31.8417 -106.3664 284° West 449 517 39,900  Level Albuquerque Center
22:06 31.8917 -106.4928 295° West 432 497 39,900  Level Albuquerque Center
22:07 31.9392 -106.6325 292° West 433 498 39,900  Level Albuquerque Center
22:08 31.9856 -106.7603 293° West 426 490 39,900  Level Albuquerque Center
22:09 32.0303 -106.8903 292° West 427 491 39,900  Level Albuquerque Center
22:10 32.0756 -107.0214 292° West 429 494 39,900  Level Albuquerque Center
22:11 32.1300 -107.1800 292° West 432 497 39,900  Level Albuquerque Center
22:12 32.1653 -107.2869 291° West 433 498 39,900  Level Albuquerque Center
22:13 32.2156 -107.4347 292° West 436 502 39,900  Level Albuquerque Center
22:14 32.2656 -107.5811 292° West 434 499 39,900  Level Albuquerque Center
22:16 32.3028 -107.7181 288° West 434 499 39,900  Level Albuquerque Center
22:17 32.3367 -107.8578 286° West 439 505 39,900  Level Albuquerque Center
22:18 32.3697 -107.9969 286° West 440 506 39,900  Level Albuquerque Center
22:19 32.4058 -108.1369 287° West 443 510 39,900  Level Albuquerque Center
22:20 32.4400 -108.2772 286° West 443 510 39,900  Level Albuquerque Center
22:21 32.4736 -108.4183 286° West 444 511 39,900  Level Albuquerque Center
22:22 32.5067 -108.5594 286° West 445 512 39,900  Level Albuquerque Center
22:23 32.5406 -108.7017 286° West 447 514 39,900  Level Albuquerque Center
22:24 32.5861 -108.8711 288° West 449 517 39,900  Level Albuquerque Center
22:25 32.6192 -109.0117 286° West 444 511 39,900  Level Albuquerque Center
22:26 32.6153 -109.1636 268° West 459 528 39,900  Level Albuquerque Center
22:27 32.6264 -109.3108 275° West 454 522 39,900  Level Albuquerque Center
22:28 32.6675 -109.4472 290° West 440 506 39,900  Level Albuquerque Center
22:29 32.7053 -109.5861 288° West 441 507 39,900  Level Albuquerque Center
22:30 32.7403 -109.7247 287° West 439 505 39,900  Level Albuquerque Center
22:31 32.7769 -109.8644 287° West 442 509 39,900  Level Albuquerque Center
22:32 32.8136 -110.0061 287° West 446 513 39,900  Level Albuquerque Center
22:33 32.8533 -110.1619 287° West 452 520 39,900  Level Albuquerque Center
22:34 32.8889 -110.3053 286° West 452 520 39,900  Level Albuquerque Center
22:35 32.9258 -110.4494 287° West 455 524 40,000  Climbing Albuquerque Center
22:36 32.9625 -110.5950 287° West 458 527 39,900 -60 Descending Albuquerque Center
22:37 32.9989 -110.7400 287° West 458 527 39,900  Level Albuquerque Center
22:38 33.0347 -110.8828 287° West 452 520 40,000  Climbing Albuquerque Center
22:39 33.0692 -111.0247 286° West 448 516 39,900 -60 Descending Albuquerque Center
22:40 33.1106 -111.1933 286° West 441 507 39,900  Level Albuquerque Center
22:41 33.1442 -111.3353 286° West 445 512 40,000  Climbing Albuquerque Center
22:42 33.1747 -111.4789 284° West 446 513 40,000  Level Albuquerque Center
22:43 33.2044 -111.6231 284° West 445 512 40,000 -60 Level Albuquerque Center
22:44 33.2358 -111.7672 285° West 448 516 39,900  Descending Albuquerque Center
22:45 33.2656 -111.9106 284° West 444 511 40,000  Climbing Albuquerque Center
22:46 33.2947 -112.0514 284° West 440 506 40,000 -60 Level Albuquerque Center
22:47 33.3239 -112.1928 284° West 438 504 39,900 -60 Descending Albuquerque Center
22:48 33.3533 -112.3386 284° West 445 512 39,900  Level Albuquerque Center
22:49 33.3833 -112.4817 284° West 442 509 40,000  Climbing Albuquerque Center
22:50 33.4125 -112.6231 284° West 447 514 39,900 -60 Descending Albuquerque Center
22:51 33.4486 -112.7953 284° West 448 516 39,900  Level Albuquerque Center
22:52 33.4936 -112.9336 291° West 450 518 39,900  Level Albuquerque Center
22:53 33.5414 -113.0697 293° West 447 514 39,900  Level Albuquerque Center
22:54 33.5911 -113.2100 293° West 453 521 39,900  Level Albuquerque Center
22:55 33.6428 -113.3561 293° West 454 522 40,000  Climbing Albuquerque Center
22:56 33.6936 -113.4986 293° West 459 528 39,900 -60 Descending Albuquerque Center
22:57 33.7431 -113.6419 293° West 463 533 39,900  Level Albuquerque Center
22:58 33.7939 -113.7853 293° West 467 537 39,900  Level Albuquerque Center
22:59 33.8428 -113.9292 292° West 465 535 39,900  Level Albuquerque Center
23:00 33.8772 -114.0778 286° West 464 534 40,000  Climbing Albuquerque Center
23:01 33.8903 -114.1653 280° West 467 537 39,900 -120 Descending Los Angeles Center
23:02 33.9172 -114.3517 280° West 471 542 39,900  Level Los Angeles Center
23:03 33.9386 -114.5056 280° West 471 542 39,900  Level Los Angeles Center
23:04 33.9619 -114.6603 280° West 472 543 39,900  Level Los Angeles Center
23:05 33.9833 -114.8147 280° West 470 541 39,900 -240 Level Los Angeles Center
23:06 34.0039 -114.9703 279° West 472 543 39,500 -1,200 Descending Los Angeles Center
23:07 34.0269 -115.1272 280° West 478 550 37,500 -1,800 Descending Los Angeles Center
23:08 34.0483 -115.2850 279° West 480 552 35,900 -840 Descending Los Angeles Center
23:09 34.0722 -115.4622 279° West 451 519 35,900  Level Los Angeles Center
23:10 34.0903 -115.6019 279° West 429 494 35,900  Level Los Angeles Center
23:11 34.1089 -115.7422 279° West 426 490 35,900 -540 Level Los Angeles Center
23:12 34.0944 -115.8917 263° West 460 529 34,900 -1,200 Descending Los Angeles Center
23:13 34.0711 -116.0481 260° West 475 547 33,500 -1,980 Descending Los Angeles Center
23:14 34.0475 -116.2056 260° West 479 551 30,900 -2,760 Descending Los Angeles Center
23:15 34.0192 -116.3881 259° West 467 537 27,900 -2,640 Descending Los Angeles Center
23:16 33.9994 -116.5350 261° West 451 519 25,600 -2,160 Descending Los Angeles Center
23:17 33.9903 -116.6733 265° West 423 487 23,500 -2,100 Descending Los Angeles Center
23:18 33.9783 -116.8061 264° West 406 467 21,300 -2,220 Descending Los Angeles Center
23:19 33.9667 -116.9500 264° West 391 450 19,100 -2,040 Descending Southern California TRACON
23:21 33.9500 -117.0833 261° West 375 432 17,100 -1,740 Descending Southern California TRACON
23:22 33.9500 -117.2167 270° West 344 396 15,400 -1,500 Descending Southern California TRACON
23:23 33.9333 -117.3333 260° West 323 372 14,000 -1,440 Descending Southern California TRACON
23:24 33.9500 -117.4333 281° West 305 351 12,600 -1,080 Descending Southern California TRACON
23:25 33.9833 -117.5167 296° West 310 357 12,000 -360 Descending Southern California TRACON
23:26 34.0167 -117.6000 296° West 293 337 12,000 -120 Level Southern California TRACON
23:27 34.0000 -117.6833 256° West 240 276 11,800 -1,320 Descending Southern California TRACON
23:28 34.0000 -117.7833 270° West 275 316 9,300 -2,100 Descending Southern California TRACON
23:29 33.9833 -117.8500 253° West 228 262 7,600 -480 Descending Southern California TRACON
23:30 33.9833 -117.9167 270° West 178 205 8,500 -240 Climbing Southern California TRACON
23:30 33.9833 -117.9833 270° West 210 242 7,200 -1,620 Descending Southern California TRACON
23:32 33.9667 -118.0500 253° West 181 208 5,300 -1,200 Descending Southern California TRACON
23:33 33.9667 -118.1000 270° West 178 205 4,700 -840 Descending Southern California TRACON
23:34 33.9667 -118.1667 270° West 183 211 3,700 -1,020 Descending Southern California TRACON
23:35 33.9500 -118.2167 248° West 186 214 2,700 -1,020 Descending Southern California TRACON
23:36 33.9500 -118.3000 270° West 180 207 1,600 -900 Descending Southern California TRACON
23:37 33.9500 -118.3333 270° West 139 160 1,000 -720 Descending Southern California TRACON
23:38 33.9333 -118.3667 239° Southwest 120 138 300 4,800 Descending Southern California TRACON
23:40 34.0633 -118.4486 332° Northwest 63 72 17,000 4,980 Climbing Los Angeles Center
23:41 34.0722 -118.4339 54° Northeast 160 184 17,000 -8,220 Level Los Angeles Center
23:42 34.0742 -118.4333 13° North 67 77 100 -8,280 Descending Los Angeles Center
23:43 34.0742 -118.4333 13° North 23 26 100  Level Los Angeles Center
23:44 34.0725 -118.4403 254° West 31 36 100  Level Los Angeles Center
23:45 34.0736 -118.4347 76° East 17 20 100  Level Los Angeles Center
23:46 34.0742 -118.4331 68° East 11 13 100  Level Los Angeles Center